Regional Weather Roundup
Issued by NWS State College, PA

Home | Current Version | Previous Version | Text Only | Print | Product List | Glossary On
Versions: 1 2 3 4 5 6 7 8 9 10 11 12 13 14 15 16 17 18 19 20 21 22 23 24 25 26 27 28 29 30 31 32 33 34 35 36 37 38 39 40 41 42 43 44 45 46 47 48 49 50
000
ASUS41 KCTP 271610
RWRCTP

REGIONAL WEATHER ROUNDUP
NATIONAL WEATHER SERVICE STATE COLLEGE PA
1200 PM EDT THU APR 27 2017

Note: "fair" indicates few or no clouds below 12,000 feet with no
significant weather and/or obstructions to visibility.

* = STATION THAT DOES NOT REPORT PRECIPITATION /E.G. RAIN...SNOW...ETC/
    THUNDER OR FOG.

PAZ002>004-007>009-013>016-020>023-029>032-271700-
WESTERN PENNSYLVANIA

CITY           SKY/WX    TMP DP  RH WIND       PRES   REMARKS
ERIE           PTSUNNY   79  59  50 SE20G25   29.60F
MEADVILLE      MOSUNNY   76  57  51 S12G17    29.66F
FRANKLIN*      MOSUNNY   75  57  53 S10G20    29.69F
NEW CASTLE     FAIR      77  60  55 VRB7      29.68S
BEAVER COUNTY  SUNNY     77  59  53 S9G16     29.70R
BUTLER*        PTSUNNY   77  59  53 S9        29.71S
PITTSBURGH INT CLOUDY    77  56  48 S12G20    29.69S
PITTSBURGH     PTSUNNY   76  54  46 S14G20    29.69F
INDIANA*       SUNNY     77  57  50 S8        29.76F
LATROBE        PTSUNNY   77  55  47 SW9       29.72F
WASHINGTON CO* CLOUDY    77  55  47 S9G22     29.71F
$$

PAZ004>006-010>012-017>019-024>028-033>037-041-042-045-046-049>053-271700-
CENTRAL PENNSYLVANIA

CITY           SKY/WX    TMP DP  RH WIND       PRES   REMARKS
BRADFORD       CLOUDY    69  58  67 SE12      29.77F
DUBOIS         CLOUDY    71  56  58 SE9       29.75F
CLEARFIELD     CLOUDY    70  60  70 E9        29.80F
JOHNSTOWN      CLOUDY    66  57  72 SE12      29.79F
ALTOONA        CLOUDY    68  61  78 S5        29.82F
STATE COLLEGE  CLOUDY    63  57  82 S5        29.84S
WILLIAMSPORT   CLOUDY    65  59  81 E6        29.83F HAZE
SELINSGROVE    CLOUDY    66  61  84 S7        29.85F
FT INDIANTOWN  CLOUDY    67  67 100 E3        29.87S
CAPITAL CITY   CLOUDY    70  61  73 E9        29.84F
HARRISBURG     CLOUDY    71  63  75 SE7       29.84F
YORK           MOSUNNY   70  64  81 VRB5      29.85F
$$

PAZ038>040-043-044-047-048-054-055-060>062-067>071-271700-
EASTERN PENNSYLVANIA

CITY           SKY/WX    TMP DP  RH WIND       PRES   REMARKS
SCRANTON       CLOUDY    70  59  68 S10       29.86S
MOUNT POCONO   CLOUDY    59  57  93 S9        29.91S
ALLENTOWN      CLOUDY    71  59  65 VRB6      29.89S
QUAKERTOWN*    MOSUNNY   72  59  64 S7        29.90S
READING        MOSUNNY   71  63  75 E6        29.86F
LANCASTER      CLOUDY    73  66  78 SE8       29.86S
COATESVILLE    SUNNY     72  63  73 S8        29.90S
POTTSTOWN      MOSUNNY   70  60  70 VRB6      29.90S
BLUE BELL      MOSUNNY   70  61  73 SE5       29.90F
DOYLESTOWN     MOSUNNY   69  61  75 S9        29.89S
WILLOW GROVE   NOT AVBL
NORTH PHILA    MOSUNNY   72  61  68 SE3       29.91S
PHILADELPHIA   PTSUNNY   74  61  63 CALM      29.88F
$$




USA.gov is the U.S. government's official web portal to all federal, state and local government web resources and services.